KC3SRB Weather Reports


Display with metric or nautical units.
time (UTC)temp
F
wind
direction
speed
MPH
gust
MPH
rain 1hr
in
rain 24hr
in
rain mn
in
humidity
%
barometer
mb
20260906011610 67 0 0.0 0.0 0.00 0.00 0.00 77 1013.2
20260906004558 67 0 0.0 0.0 0.00 0.00 0.00 76 1012.9
20260906003055 68 0 0.0 2.0 0.00 0.00 0.00 77 1012.8
20260906001604 68 0 0.0 1.0 0.00 0.00 0.00 75 1012.8
20260906000108 68 0 0.0 2.0 0.00 0.00 0.00 74 1012.6
20260905234556 69 0 0.0 2.0 0.00 0.00 0.00 75 1012.5
20260905233106 69 0 0.0 2.0 0.00 0.00 0.00 74 1012.4
20260905231618 70 0 0.0 2.0 0.00 0.00 0.00 73 1012.3
20260905230104 72 0 0.0 2.0 0.00 0.00 0.00 72 1012.3
20260905224604 73 30 0.0 3.0 0.00 0.00 0.00 72 1012.2
20260905223101 74 0 0.0 2.0 0.00 0.00 0.00 69 1012.1
20260905221626 75 97 1.0 3.0 0.00 0.00 0.00 66 1012.0
20260905220056 76 0 1.0 3.0 0.00 0.00 0.00 61 1012.0
20260905214608 77 0 2.0 6.0 0.00 0.00 0.00 56 1011.9
20260905213104 77 0 1.0 3.0 0.00 0.00 0.00 58 1011.9
20260905211601 78 81 1.0 6.0 0.00 0.00 0.00 56 1011.9
20260905210108 80 121 1.0 4.0 0.00 0.00 0.00 55 1011.7
20260905204558 80 225 1.0 7.0 0.00 0.00 0.00 52 1011.9
20260905203053 80 221 1.0 8.0 0.00 0.00 0.00 54 1011.8
20260905201602 80 0 1.0 8.0 0.00 0.00 0.00 53 1011.9
20260905200129 80 302 3.0 7.0 0.00 0.00 0.00 53 1011.9
20260905194556 80 265 1.0 7.0 0.00 0.00 0.00 53 1012.0
20260905193058 80 96 3.0 11.0 0.00 0.00 0.00 52 1012.0
20260905191559 81 257 1.0 6.0 0.00 0.00 0.00 60 1012.0
20260905184602 81 153 2.0 8.0 0.00 0.00 0.00 55 1012.3
20260905183103 80 94 2.0 7.0 0.00 0.00 0.00 57 1012.4
20260905181607 79 315 2.0 9.0 0.00 0.00 0.00 57 1012.5
20260905180115 79 0 2.0 9.0 0.00 0.00 0.00 57 1012.7
20260905174555 79 0 2.0 7.0 0.00 0.00 0.00 55 1012.7
20260905173127 79 128 0.0 12.0 0.00 0.00 0.00 57 1012.7
20260905171602 79 234 2.0 7.0 0.00 0.00 0.00 58 1012.9
20260905170104 79 113 0.0 8.0 0.00 0.00 0.00 57 1012.9
20260905164601 79 95 2.0 8.0 0.00 0.00 0.00 59 1013.0
20260905163101 78 282 3.0 7.0 0.00 0.00 0.00 60 1013.1
20260905161559 77 244 4.0 9.0 0.00 0.00 0.00 63 1013.4
20260905160100 78 244 2.0 6.0 0.00 0.00 0.00 63 1013.6
20260905154605 78 278 0.0 3.0 0.00 0.00 0.00 64 1013.5
20260905153057 76 28 1.0 8.0 0.00 0.00 0.00 64 1013.6
20260905151559 76 0 1.0 7.0 0.00 0.00 0.00 66 1013.5
20260905150105 76 0 0.0 4.0 0.00 0.00 0.00 67 1013.7
20260905144601 76 234 2.0 10.0 0.00 0.00 0.00 69 1013.4
20260905143102 76 173 2.0 5.0 0.00 0.00 0.00 67 1013.5
20260905141559 75 0 1.0 4.0 0.00 0.00 0.00 70 1013.1
20260905140112 74 0 0.0 5.0 0.00 0.00 0.00 73 1013.0
20260905134605 73 203 1.0 3.0 0.00 0.00 0.00 73 1013.1
20260905133059 73 0 0.0 3.0 0.00 0.00 0.00 72 1013.4
20260905131555 74 0 0.0 3.0 0.00 0.00 0.00 73 1013.4
20260905130105 73 167 0.0 4.0 0.00 0.00 0.00 74 1013.2
20260905124601 73 171 1.0 5.0 0.00 0.00 0.00 75 1013.2
20260905123105 72 0 2.0 6.0 0.00 0.00 0.00 75 1013.0
20260905121602 71 112 0.0 4.0 0.00 0.00 0.00 79 1012.9
20260905120111 69 0 0.0 3.0 0.00 0.00 0.00 80 1013.1
20260905114608 69 0 0.0 1.0 0.00 0.00 0.00 83 1013.0
20260905113101 69 0 0.0 0.0 0.00 0.00 0.00 84 1012.8
20260905111655 69 0 0.0 0.0 0.00 0.00 0.00 83 1012.8
20260905110058 69 0 0.0 4.0 0.00 0.00 0.00 83 1012.8
20260905104555 68 0 0.0 0.0 0.00 0.00 0.00 84 1012.6
20260905103051 69 0 0.0 0.0 0.00 0.00 0.00 84 1012.2
20260905101601 69 0 0.0 0.0 0.00 0.00 0.00 83 1012.2
20260905100101 69 0 0.0 0.0 0.00 0.00 0.00 83 1012.0
20260905094551 69 0 0.0 2.0 0.00 0.00 0.00 81 1011.9
20260905093107 70 109 1.0 3.0 0.00 0.00 0.00 80 1012.0
20260905091601 70 0 0.0 0.0 0.00 0.00 0.00 81 1011.9
20260905090057 71 0 0.0 3.0 0.00 0.00 0.00 80 1011.7
20260905084554 71 0 0.0 1.0 0.00 0.00 0.00 80 1011.7
20260905083100 71 0 0.0 2.0 0.00 0.00 0.00 80 1011.7
20260905081559 71 0 0.0 4.0 0.00 0.00 0.00 79 1011.9
20260905080101 71 0 0.0 2.0 0.00 0.00 0.00 80 1011.9
20260905074601 71 0 0.0 5.0 0.00 0.00 0.00 79 1012.0
20260905073056 71 229 0.0 5.0 0.00 0.00 0.00 79 1012.0
20260905071603 71 89 0.0 2.0 0.00 0.00 0.00 81 1012.2
20260905070106 71 0 0.0 2.0 0.00 0.00 0.00 84 1012.1
20260905064629 71 0 0.0 2.0 0.00 0.00 0.00 84 1012.0
20260905063058 72 0 0.0 2.0 0.00 0.00 0.00 86 1012.0
20260905061604 73 0 0.0 2.0 0.00 0.00 0.00 84 1012.2
20260905060100 73 0 0.0 4.0 0.00 0.00 0.00 85 1012.2
20260905054600 73 0 0.0 3.0 0.00 0.00 0.00 84 1012.4
20260905053055 73 120 1.0 4.0 0.00 0.00 0.00 85 1012.4
20260905051604 73 0 0.0 2.0 0.00 0.00 0.00 87 1012.6
20260905050100 73 242 0.0 3.0 0.00 0.00 0.00 86 1012.8
20260905044600 73 153 0.0 2.0 0.00 0.00 0.00 86 1012.8
20260905043058 73 0 0.0 0.0 0.00 0.00 0.00 87 1012.7
20260905041604 73 0 0.0 0.0 0.00 0.00 0.00 87 1012.7
20260905034604 73 0 0.0 0.0 0.00 0.00 0.00 86 1012.9
20260905033111 73 0 0.0 0.0 0.00 0.00 0.00 87 1012.7
20260905031612 73 0 0.0 2.0 0.00 0.00 0.00 86 1012.6
20260905030115 73 0 1.0 3.0 0.00 0.00 0.00 86 1012.7
20260905024606 73 0 0.0 3.0 0.00 0.00 0.00 86 1012.6
20260905023102 73 0 0.0 0.0 0.00 0.00 0.00 86 1012.6
20260905021606 73 0 0.0 2.0 0.00 0.00 0.00 86 1012.4
20260905020108 74 0 0.0 2.0 0.00 0.00 0.00 85 1012.3
20260905014603 74 0 0.0 2.0 0.00 0.00 0.00 84 1012.3
20260905013057 74 0 0.0 1.0 0.00 0.00 0.00 84 1012.3